Portsmouth, NH

8:25 PM EDT on October 21, 2017 (GMT -0400)
Pease International Tradeport

Weather History for KPSM - April, 2014

Change the Weather History Date:

Sunday, April 13, 2014

  Actual Average Record
Temperature  
Mean Temperature 46 °F -  
Max Temperature 52 °F 53 °F 83 °F (1977)
Min Temperature 41 °F 34 °F 18 °F (1985)
Degree Days  
Heating Degree Days 18    
Moisture  
Dew Point 39 °F    
Average Humidity 79    
Maximum Humidity 100    
Minimum Humidity 39    
Precipitation  
Precipitation 0.01 in - - ()
Sea Level Pressure  
Sea Level Pressure 30.19 in    
Wind  
Wind Speed 7 mph (NE)    
Max Wind Speed 10 mph    
Max Gust Speed -    
Visibility 10 miles    
Events Rain    
Averages and records for this station are not official NWS values.
T = Trace of Precipitation, MM = Missing Value Source: NWS Daily Summary

Daily Weather History Graph

Daily Weather History Graph

Search for Another Location

Airport or City:

Trip Planner

Search our weather history database for the weather conditions in past years. The results will help you decide how hot, cold, wet, or windy it might be!

Date:

Astronomy

Apr. 13, 2014 Rise Set
Actual Time 6:04 AM EDT 7:23 PM EDT
Civil Twilight 5:35 AM EDT 7:53 PM EDT
Nautical Twilight 5:00 AM EDT 8:28 PM EDT
Astronomical Twilight 4:22 AM EDT 9:06 PM EDT
Moon 5:56 PM EDT (4/13) 5:04 AM EDT (4/13)
Length of Visible Light 14h 17m
Length of Day
13h 18m
Waxing Gibbous, 97% of the Moon is Illuminated
Apr 13
Waxing Gibbous
Apr 15
Full
Apr 22
Last Quarter
Apr 29
New
May 6
First Quarter

Hourly Weather History & Observations

Time (EDT) Temp. Windchill Dew Point Humidity Pressure Visibility Wind Dir Wind Speed Gust Speed Precip Events Conditions
12:58 AM 47.7 °F - 36.1 °F 64% 30.21 in 10.0 mi NE 5.8 mph - N/A   Overcast
1:58 AM 51.3 °F - 30.0 °F 44% 30.23 in 10.0 mi NE 8.1 mph - N/A   Overcast
2:58 AM 52.3 °F - 28.2 °F 39% 30.23 in 10.0 mi ENE 3.5 mph - N/A   Overcast
3:58 AM 49.5 °F - 33.4 °F 54% 30.23 in 10.0 mi East 5.8 mph - N/A   Overcast
4:58 AM 49.1 °F - 33.1 °F 54% 30.23 in 10.0 mi ENE 10.4 mph - N/A   Overcast
5:58 AM 48.6 °F - 32.9 °F 55% 30.25 in 10.0 mi East 4.6 mph - N/A   Overcast
6:58 AM 47.3 °F - 36.0 °F 65% 30.23 in 10.0 mi ENE 9.2 mph - N/A   Overcast
7:58 AM 47.5 °F - 36.9 °F 67% 30.25 in 10.0 mi NE 9.2 mph - N/A   Overcast
8:58 AM 47.3 °F - 36.5 °F 66% 30.28 in 10.0 mi NE 10.4 mph - N/A   Overcast
9:30 AM 46.4 °F 42.4 °F 35.6 °F 66% 30.28 in 10.0 mi NE 8.1 mph - N/A Rain Light Rain
9:58 AM 44.6 °F 39.7 °F 39.4 °F 82% 30.30 in 4.0 mi NNE 9.2 mph - 0.00 in Rain Light Rain
10:58 AM 42.6 °F 36.8 °F 42.4 °F 99% 30.27 in 7.0 mi NE 10.4 mph - 0.01 in Rain Light Rain
11:28 AM 42.8 °F 37.0 °F 42.8 °F 100% 30.26 in 7.0 mi NE 10.4 mph - N/A Rain Light Rain
11:58 AM 41.7 °F 38.0 °F 41.5 °F 99% 30.27 in 7.0 mi NE 5.8 mph - 0.00 in   Overcast
12:58 PM 41.7 °F 35.6 °F 41.5 °F 99% 30.24 in 10.0 mi NE 10.4 mph - N/A Rain Light Rain Showers
1:13 PM 41.0 °F 34.7 °F 41.0 °F 100% 30.22 in 10.0 mi NE 10.4 mph - N/A   Overcast
1:58 PM 42.4 °F 37.0 °F 42.3 °F 99% 30.22 in 10.0 mi NE 9.2 mph - 0.00 in   Overcast
2:58 PM 44.1 °F 40.1 °F 43.3 °F 97% 30.19 in 10.0 mi NE 6.9 mph - N/A   Overcast
3:28 PM 44.6 °F 39.7 °F 44.6 °F 100% 30.15 in 10.0 mi NE 9.2 mph - N/A   Overcast
3:58 PM 47.1 °F - 43.0 °F 86% 30.12 in 10.0 mi NE 10.4 mph - N/A   Overcast
4:58 PM 49.8 °F - 42.6 °F 76% 30.10 in 10.0 mi ENE 6.9 mph - N/A   Mostly Cloudy
5:58 PM 48.2 °F - 39.6 °F 72% 30.09 in 10.0 mi East 5.8 mph - N/A   Mostly Cloudy
6:58 PM 46.9 °F - 39.4 °F 75% 30.06 in 10.0 mi NE 8.1 mph - N/A   Mostly Cloudy
7:58 PM 44.6 °F 41.4 °F 39.7 °F 83% 30.07 in 10.0 mi NE 5.8 mph - N/A   Mostly Cloudy
8:58 PM 43.3 °F 37.7 °F 39.7 °F 87% 30.06 in 10.0 mi North 10.4 mph - N/A   Mostly Cloudy
9:58 PM 43.3 °F 38.6 °F 42.3 °F 96% 30.06 in 10.0 mi North 8.1 mph - N/A   Mostly Cloudy
10:58 PM 42.6 °F 40.9 °F 42.1 °F 98% 30.06 in 10.0 mi NW 3.5 mph - N/A   Mostly Cloudy
11:58 PM 41.5 °F 38.6 °F 41.2 °F 99% 30.04 in 10.0 mi North 4.6 mph - N/A   Overcast